QPF
0.00 0.06 0.07 0.02 0.01 0.01 0.00 0.00 0.00 0.00 0.00 0.00 0.00 0.00 0.00 0.00 0.00 0.00 0.00 0.01 0.00 0.00 0.00 0.00 0.00 0.00 0.00 0.00 0.00 0.00 0.00 0.00 0.00 0.00 0.00 0.00 0.00 0.00 0.00 0.00 0.00 0.00 0.00 0.00 0.00 0.02 0.00 0.00 0.00
0.03 0.09 0.06 0.00 0.00 0.00 0.00 0.00 0.00 0.00 0.00 0.00 0.00 0.00 0.00 0.00 0.00 0.00 0.00 0.01 0.00 0.00 0.00 0.00 0.00 0.00 0.00 0.00 0.00 0.00 0.00 0.00 0.00 0.00 0.00 0.00 0.00 0.00 0.00 0.00 0.00 0.00 0.00 0.00 0.00 0.00 0.00 0.00 0.00
0.08 0.07 0.01 0.01 0.01 0.00 0.00 0.00 0.00 0.00 0.00 0.00 0.00 0.00 0.00 0.00 0.00 0.00 0.00 0.00 0.00 0.00 0.00 0.00 0.00 0.00 0.00 0.00 0.00 0.00 0.00 0.00 0.00 0.00 0.00 0.00 0.00 0.00 0.00 0.00 0.00 0.00 0.00 0.00 0.00 0.00 0.00 0.00 0.00
0.09 0.05 0.01 0.02 0.00 0.00 0.00 0.00 0.00 0.00 0.00 0.00 0.00 0.00 0.00 0.00 0.00 0.00 0.00 0.00 0.00 0.00 0.00 0.00 0.00 0.00 0.00 0.00 0.00 0.00 0.00 0.00 0.00 0.00 0.00 0.00 0.00 0.00 0.00 0.00 0.00 0.00 0.00 0.00 0.00 0.00 0.00 0.00 0.00
0.00 0.00 0.01 0.01 0.00 0.00 0.00 0.00 0.00 0.00 0.00 0.00 0.00 0.00 0.00 0.00 0.00 0.00 0.01 0.00 0.00 0.00 0.00 0.00 0.00 0.00 0.00 0.00 0.00 0.00 0.00 0.00 0.00 0.00 0.00 0.00 0.00 0.00 0.00 0.00 0.00 0.00 0.00 0.00 0.00 0.00 0.00 0.00 0.00
0.02 0.00 0.00 0.00 0.00 0.00 0.00 0.00 0.00 0.00 0.00 0.00 0.00 0.00 0.00 0.00 0.00 0.00 0.00 0.00 0.00 0.00 0.00 0.00 0.00 0.00 0.00 0.00 0.00 0.00 0.00 0.00 0.00 0.00 0.00 0.00 0.00 0.00 0.00 0.00 0.00 0.00 0.00 0.00 0.00 0.00 0.00 0.00 0.00
0.01 0.00 0.00 0.00 0.00 0.00 0.00 0.00 0.00 0.00 0.00 0.00 0.00 0.00 0.00 0.00 0.00 0.00 0.00 0.00 0.00 0.00 0.00 0.00 0.00 0.00 0.00 0.00 0.00 0.00 0.00 0.00 0.00 0.00 0.00 0.00 0.00 0.00 0.00 0.00 0.00 0.00 0.00 0.00 0.00 0.00 0.00 0.00 0.00
0.00 0.04 0.03 0.00 0.00 0.00 0.00 0.00 0.00 0.00 0.00 0.00 0.00 0.00 0.00 0.00 0.00 0.00 0.00 0.00 0.00 0.00 0.00 0.00 0.00 0.00 0.00 0.00 0.00 0.00 0.00 0.00 0.00 0.00 0.00 0.00 0.00 0.00 0.00 0.00 0.00 0.00 0.00 0.00 0.00 0.00 0.00 0.00 0.00
0.01 0.00 0.01 0.00 0.00 0.00 0.00 0.00 0.00 0.00 0.00 0.00 0.00 0.00 0.00 0.00 0.00 0.00 0.00 0.00 0.00 0.00 0.00 0.00 0.00 0.00 0.00 0.00 0.00 0.00 0.00 0.00 0.00 0.00 0.00 0.00 0.00 0.00 0.00 0.00 0.00 0.00 0.00 0.00 0.00 0.00 0.00 0.00 0.00
0.00 0.00 0.00 0.00 0.00 0.00 0.00 0.00 0.00 0.00 0.00 0.00 0.00 0.00 0.00 0.00 0.00 0.00 0.00 0.00 0.00 0.00 0.00 0.00 0.00 0.00 0.00 0.00 0.00 0.00 0.00 0.00 0.00 0.00 0.00 0.00 0.03 0.04 0.03 0.03 0.03 0.02 0.00 0.00 0.00 0.00 0.00 0.00 0.00
0.00 0.00 0.00 0.00 0.00 0.00 0.00 0.00 0.00 0.00 0.00 0.00 0.00 0.00 0.00 0.00 0.00 0.00 0.00 0.00 0.00 0.00 0.00 0.00 0.00 0.00 0.00 0.00 0.00 0.00 0.00 0.00 0.00 0.00 0.00 0.03 0.08 0.12 0.15 0.08 0.06 0.07 0.01 0.00 0.00 0.00 0.01 0.01 0.00
0.00 0.00 0.00 0.00 0.00 0.00 0.00 0.00 0.00 0.00 0.00 0.00 0.00 0.00 0.00 0.00 0.00 0.00 0.00 0.00 0.00 0.00 0.00 0.00 0.00 0.00 0.00 0.00 0.00 0.00 0.00 0.00 0.00 0.00 0.00 0.03 0.06 0.02 0.10 0.16 0.02 0.01 0.04 0.00 0.00 0.00 0.00 0.00 0.00
0.00 0.00 0.00 0.00 0.00 0.00 0.00 0.00 0.00 0.00 0.00 0.00 0.00 0.00 0.00 0.00 0.00 0.00 0.00 0.00 0.00 0.00 0.00 0.00 0.00 0.00 0.00 0.00 0.00 0.00 0.00 0.00 0.00 0.01 0.00 0.01 0.01 0.00 0.00 0.03 0.01 0.00 0.01 0.00 0.00 0.00 0.00 0.00 0.00
0.00 0.00 0.00 0.00 0.00 0.00 0.00 0.00 0.00 0.00 0.00 0.00 0.00 0.00 0.00 0.00 0.00 0.00 0.00 0.00 0.00 0.00 0.00 0.00 0.00 0.00 0.00 0.00 0.00 0.01 0.01 0.02 0.01 0.03 0.01 0.00 0.00 0.02 0.06 0.04 0.00 0.00 0.01 0.01 0.00 0.00 0.00 0.00 0.00
0.00 0.00 0.00 0.00 0.00 0.00 0.00 0.00 0.00 0.00 0.00 0.00 0.00 0.00 0.00 0.00 0.00 0.00 0.00 0.00 0.00 0.00 0.00 0.00 0.00 0.00 0.00 0.00 0.00 0.03 0.02 0.01 0.01 0.00 0.09 0.01 0.01 0.00 0.00 0.00 0.00 0.00 0.01 0.01 0.01 0.01 0.01 0.00 0.00
0.00 0.00 0.00 0.00 0.00 0.00 0.00 0.00 0.00 0.00 0.00 0.00 0.00 0.00 0.00 0.00 0.00 0.00 0.00 0.00 0.00 0.00 0.00 0.00 0.00 0.00 0.00 0.00 0.00 0.02 0.01 0.03 0.01 0.01 0.03 0.03 0.00 0.01 0.00 0.00 0.00 0.00 0.01 0.05 0.06 0.02 0.00 0.00 0.00
0.00 0.00 0.00 0.00 0.00 0.00 0.00 0.00 0.00 0.00 0.00 0.00 0.00 0.00 0.00 0.00 0.00 0.00 0.00 0.00 0.00 0.00 0.00 0.00 0.00 0.00 0.00 0.00 0.00 0.01 0.01 0.00 0.00 0.01 0.00 0.01 0.00 0.00 0.00 0.00 0.00 0.00 0.01 0.01 0.01 0.00 0.00 0.01 0.01
0.00 0.00 0.00 0.00 0.00 0.00 0.00 0.00 0.00 0.00 0.00 0.00 0.00 0.00 0.00 0.00 0.00 0.00 0.00 0.00 0.00 0.00 0.00 0.00 0.00 0.00 0.00 0.00 0.00 0.00 0.00 0.00 0.00 0.00 0.00 0.00 0.00 0.00 0.00 0.00 0.00 0.00 0.01 0.01 0.01 0.00 0.00 0.00 0.00
0.00 0.00 0.00 0.00 0.00 0.00 0.00 0.00 0.00 0.00 0.00 0.00 0.00 0.00 0.00 0.00 0.00 0.00 0.00 0.00 0.00 0.00 0.00 0.00 0.00 0.00 0.00 0.00 0.00 0.00 0.00 0.00 0.00 0.00 0.00 0.00 0.00 0.00 0.00 0.00 0.00 0.00 0.01 0.01 0.04 0.02 0.00 0.01 0.00
0.00 0.00 0.00 0.00 0.00 0.00 0.00 0.00 0.00 0.00 0.00 0.00 0.00 0.00 0.00 0.00 0.00 0.00 0.00 0.00 0.00 0.00 0.00 0.00 0.00 0.00 0.00 0.00 0.01 0.00 0.00 0.00 0.00 0.00 0.00 0.00 0.03 0.01 0.00 0.00 0.00 0.00 0.01 0.02 0.05 0.02 0.00 0.00 0.00
0.00 0.00 0.00 0.00 0.00 0.00 0.00 0.00 0.00 0.00 0.00 0.00 0.00 0.00 0.00 0.00 0.00 0.00 0.00 0.00 0.00 0.00 0.00 0.00 0.00 0.00 0.00 0.01 0.00 0.00 0.00 0.00 0.00 0.00 0.00 0.03 0.03 0.01 0.00 0.00 0.00 0.00 0.00 0.05 0.04 0.02 0.00 0.00 0.00
0.00 0.00 0.00 0.00 0.00 0.00 0.00 0.00 0.00 0.00 0.00 0.00 0.00 0.00 0.00 0.00 0.00 0.00 0.00 0.00 0.00 0.00 0.00 0.00 0.00 0.00 0.00 0.01 0.00 0.00 0.00 0.00 0.00 0.00 0.00 0.02 0.06 0.04 0.00 0.00 0.00 0.00 0.00 0.06 0.04 0.01 0.00 0.00 0.00
0.00 0.00 0.00 0.00 0.00 0.00 0.00 0.00 0.00 0.00 0.00 0.00 0.00 0.00 0.00 0.00 0.00 0.00 0.00 0.00 0.00 0.00 0.00 0.00 0.00 0.03 0.01 0.03 0.01 0.01 0.00 0.00 0.00 0.00 0.00 0.00 0.08 0.11 0.02 0.00 0.00 0.00 0.00 0.01 0.01 0.00 0.00 0.00 0.01
0.00 0.00 0.00 0.00 0.00 0.00 0.00 0.00 0.00 0.00 0.00 0.00 0.00 0.00 0.00 0.00 0.00 0.00 0.00 0.00 0.00 0.00 0.00 0.00 0.00 0.03 0.05 0.03 0.03 0.01 0.00 0.00 0.00 0.00 0.01 0.08 0.08 0.11 0.09 0.04 0.05 0.02 0.00 0.04 0.00 0.00 0.00 0.02 0.05
0.00 0.00 0.00 0.00 0.00 0.00 0.00 0.00 0.00 0.00 0.00 0.00 0.00 0.00 0.00 0.00 0.00 0.00 0.00 0.00 0.00 0.00 0.00 0.00 0.00 0.00 0.01 0.02 0.00 0.00 0.00 0.01 0.02 0.00 0.00 0.01 0.02 0.03 0.13 0.21 0.27 0.25 0.09 0.02 0.01 0.00 0.00 0.00 0.00
0.00 0.00 0.00 0.00 0.00 0.00 0.00 0.00 0.00 0.00 0.00 0.00 0.00 0.00 0.00 0.00 0.00 0.00 0.00 0.00 0.00 0.00 0.00 0.00 0.00 0.02 0.00 0.02 0.00 0.00 0.08 0.03 0.02 0.00 0.00 0.00 0.00 0.01 0.04 0.14 0.13 0.04 0.03 0.01 0.03 0.02 0.00 0.00 0.00
0.00 0.00 0.00 0.00 0.00 0.00 0.00 0.00 0.00 0.00 0.00 0.00 0.00 0.00 0.00 0.00 0.00 0.00 0.00 0.00 0.00 0.00 0.00 0.00 0.01 0.04 0.03 0.01 0.02 0.05 0.09 0.15 0.11 0.00 0.00 0.00 0.00 0.00 0.00 0.08 0.06 0.00 0.00 0.01 0.02 0.00 0.00 0.00 0.00
0.00 0.00 0.00 0.00 0.00 0.00 0.00 0.00 0.00 0.00 0.00 0.00 0.00 0.00 0.00 0.00 0.00 0.00 0.00 0.00 0.00 0.00 0.00 0.00 0.03 0.05 0.03 0.00 0.00 0.01 0.01 0.08 0.07 0.00 0.00 0.00 0.00 0.00 0.00 0.00 0.00 0.01 0.08 0.04 0.01 0.00 0.00 0.00 0.00
0.00 0.00 0.00 0.00 0.00 0.00 0.00 0.00 0.00 0.00 0.00 0.00 0.00 0.00 0.00 0.00 0.00 0.00 0.00 0.00 0.00 0.00 0.00 0.01 0.05 0.03 0.00 0.00 0.00 0.00 0.03 0.02 0.01 0.00 0.00 0.00 0.00 0.00 0.00 0.00 0.00 0.01 0.03 0.00 0.00 0.00 0.00 0.00 0.00
0.00 0.00 0.00 0.00 0.00 0.00 0.00 0.00 0.00 0.00 0.00 0.00 0.00 0.00 0.00 0.00 0.00 0.00 0.00 0.00 0.00 0.00 0.02 0.01 0.01 0.00 0.00 0.00 0.00 0.00 0.00 0.00 0.00 0.00 0.00 0.00 0.00 0.00 0.00 0.00 0.00 0.00 0.01 0.00 0.00 0.00 0.00 0.00 0.00
MSLP
1011.46 1011.88 1012.39 1012.28 1012.46 1011.20 1009.25 1007.57 1006.65 1006.48 1006.51 1006.35 1006.48 1007.32 1007.81 1008.27 1009.19 1010.98 1010.51 1010.86 1011.21 1011.90 1012.07 1012.31 1012.48 1012.74 1012.99 1013.32 1013.56 1013.75 1014.00 1014.19 1014.25 1014.33 1014.42 1014.55 1014.56 1014.64 1014.75 1014.90 1015.06 1015.13 1015.25 1015.32 1015.53 1015.64 1015.82 1015.97 1016.21
1011.18 1011.51 1012.07 1011.59 1011.27 1010.24 1008.55 1006.72 1006.31 1006.25 1006.40 1006.23 1006.70 1007.13 1007.64 1008.84 1008.93 1010.35 1011.01 1011.19 1011.10 1011.48 1011.88 1012.39 1012.62 1012.87 1013.14 1013.46 1013.66 1013.82 1013.93 1014.06 1014.22 1014.36 1014.44 1014.63 1014.70 1014.72 1014.80 1014.90 1015.11 1015.29 1015.34 1015.43 1015.55 1015.71 1015.84 1016.14 1016.36
1011.03 1010.87 1011.34 1010.71 1009.91 1008.82 1007.45 1006.54 1006.17 1006.11 1005.94 1005.83 1006.44 1006.87 1007.55 1008.65 1009.19 1009.72 1010.12 1010.86 1011.28 1011.63 1011.98 1012.31 1012.62 1012.89 1013.17 1013.45 1013.67 1013.81 1013.96 1014.14 1014.20 1014.22 1014.35 1014.58 1014.74 1014.80 1014.85 1014.99 1015.18 1015.29 1015.52 1015.62 1015.67 1015.84 1016.01 1016.20 1016.47
1010.29 1011.17 1010.90 1010.21 1008.94 1006.74 1005.95 1005.71 1005.70 1005.91 1006.16 1006.02 1006.30 1007.16 1007.65 1007.75 1008.50 1009.21 1010.32 1011.03 1011.61 1011.97 1012.13 1012.26 1012.60 1012.86 1013.18 1013.41 1013.62 1013.83 1014.03 1014.15 1014.27 1014.37 1014.38 1014.39 1014.55 1014.78 1014.93 1015.07 1015.25 1015.39 1015.59 1015.70 1015.81 1015.95 1016.13 1016.23 1016.52
1010.37 1010.66 1010.99 1009.60 1007.61 1005.87 1005.04 1004.72 1004.91 1005.35 1005.77 1006.18 1006.57 1007.65 1008.00 1008.07 1008.55 1009.51 1010.25 1010.97 1011.38 1012.10 1012.15 1012.22 1012.39 1012.82 1013.19 1013.48 1013.71 1013.94 1014.08 1014.20 1014.36 1014.43 1014.44 1014.44 1014.54 1014.66 1014.79 1015.07 1015.35 1015.52 1015.61 1015.76 1015.95 1016.09 1016.20 1016.31 1016.60
1010.50 1011.25 1011.24 1009.25 1006.71 1005.34 1004.66 1004.29 1004.65 1005.06 1005.73 1006.35 1007.06 1007.62 1008.36 1008.46 1009.00 1009.77 1010.28 1010.88 1011.33 1011.56 1012.03 1012.31 1012.56 1012.77 1013.02 1013.30 1013.62 1013.88 1014.12 1014.25 1014.32 1014.41 1014.56 1014.62 1014.67 1014.70 1014.83 1014.98 1015.33 1015.53 1015.68 1015.84 1015.96 1016.08 1016.25 1016.36 1016.59
1009.77 1010.82 1010.34 1007.92 1006.13 1005.08 1004.38 1004.02 1004.19 1004.85 1005.37 1005.86 1006.37 1007.59 1008.50 1008.86 1008.99 1009.43 1010.02 1010.54 1010.85 1011.02 1011.55 1011.78 1012.22 1012.49 1012.93 1013.28 1013.51 1013.69 1013.82 1014.01 1014.20 1014.32 1014.48 1014.68 1014.80 1014.86 1014.89 1015.03 1015.18 1015.47 1015.71 1015.83 1015.91 1016.03 1016.21 1016.35 1016.55
1009.05 1009.95 1008.93 1007.08 1005.55 1004.98 1004.10 1003.64 1003.46 1004.12 1004.56 1005.06 1005.89 1006.96 1008.43 1008.09 1008.63 1009.36 1010.00 1010.41 1010.91 1011.36 1011.78 1012.02 1012.36 1012.48 1012.66 1012.98 1013.26 1013.54 1013.77 1013.92 1014.03 1014.15 1014.28 1014.46 1014.73 1014.92 1014.97 1015.06 1015.10 1015.31 1015.58 1015.73 1015.84 1015.99 1016.15 1016.34 1016.48
1008.00 1008.84 1008.05 1006.80 1004.47 1004.12 1003.46 1003.25 1003.53 1003.63 1004.56 1004.50 1005.17 1005.80 1006.58 1007.39 1008.36 1009.42 1010.59 1011.40 1011.68 1011.98 1011.96 1012.16 1012.47 1012.73 1012.89 1013.05 1013.19 1013.49 1013.74 1013.97 1014.05 1014.15 1014.34 1014.60 1014.85 1014.96 1014.98 1015.07 1015.07 1015.13 1015.29 1015.55 1015.79 1015.95 1016.20 1016.42 1016.45
1007.29 1007.10 1005.47 1004.66 1003.07 1003.06 1003.21 1002.59 1003.12 1003.84 1004.14 1004.70 1005.07 1005.71 1006.65 1007.17 1008.05 1009.01 1010.23 1010.89 1011.40 1011.69 1011.92 1012.22 1012.41 1012.49 1012.64 1012.71 1013.17 1013.52 1013.69 1013.65 1013.97 1014.25 1014.40 1014.60 1014.85 1014.93 1015.01 1014.98 1015.02 1015.05 1015.13 1015.32 1015.63 1015.90 1016.13 1016.34 1016.53
1005.56 1005.30 1003.71 1002.53 1001.41 1001.74 1002.11 1002.30 1002.65 1003.13 1004.14 1004.04 1004.42 1005.77 1006.62 1007.07 1007.57 1008.60 1009.49 1010.01 1010.65 1010.96 1011.65 1011.92 1012.09 1012.14 1012.41 1012.43 1012.93 1013.46 1013.64 1013.74 1013.84 1014.01 1014.22 1014.33 1014.51 1014.88 1014.97 1014.99 1014.89 1015.19 1015.21 1015.31 1015.54 1015.84 1016.02 1016.22 1016.48
1004.68 1003.99 1003.11 1002.32 1001.58 1002.03 1002.03 1001.96 1002.50 1002.42 1002.34 1002.72 1003.62 1004.20 1005.95 1006.91 1007.29 1007.90 1008.65 1009.65 1010.21 1010.67 1010.86 1011.20 1011.57 1011.92 1012.10 1012.33 1012.78 1013.11 1013.39 1013.75 1013.97 1013.92 1013.99 1014.22 1014.42 1014.59 1014.77 1014.90 1014.94 1015.17 1015.30 1015.40 1015.46 1015.80 1016.00 1016.22 1016.38
1004.22 1003.44 1002.63 1001.74 1001.09 1000.83 1001.53 1001.50 1001.32 1001.67 1002.01 1002.77 1004.06 1004.75 1005.44 1006.37 1007.13 1007.61 1007.96 1008.70 1009.52 1010.09 1010.48 1010.67 1011.17 1011.57 1011.83 1012.22 1012.44 1012.88 1013.15 1013.31 1013.58 1013.71 1013.75 1013.83 1014.07 1014.47 1014.63 1014.62 1014.72 1014.93 1015.17 1015.35 1015.52 1015.67 1015.98 1016.19 1016.29
1003.69 1003.30 1002.52 1001.48 1000.79 1000.16 1001.14 1001.03 1001.44 1001.36 1001.82 1003.05 1003.92 1004.71 1005.25 1005.38 1006.08 1007.10 1007.62 1008.08 1008.69 1009.23 1009.79 1010.18 1010.70 1011.02 1011.24 1011.97 1012.29 1012.60 1012.50 1012.85 1013.17 1013.28 1013.42 1013.42 1013.60 1013.83 1014.32 1014.72 1014.62 1014.69 1014.84 1015.05 1015.32 1015.60 1015.80 1016.01 1016.04
1003.79 1003.62 1002.47 1001.28 1000.87 1000.47 1000.32 1000.34 1000.57 1000.20 1001.04 1002.52 1003.46 1004.02 1004.58 1005.27 1005.22 1005.63 1006.40 1007.14 1007.73 1008.43 1008.99 1009.55 1010.13 1010.60 1011.08 1011.45 1011.50 1011.85 1011.72 1012.40 1012.86 1013.02 1013.18 1013.32 1013.44 1013.53 1013.75 1014.28 1014.55 1014.40 1014.52 1014.81 1015.21 1015.42 1015.58 1015.85 1015.75
1004.55 1004.31 1003.63 1001.28 1001.44 1000.53 1001.03 1000.41 999.71 1000.08 1001.05 1002.37 1002.84 1003.36 1003.85 1004.48 1004.45 1004.66 1005.31 1006.17 1007.06 1007.79 1008.43 1008.86 1009.59 1010.31 1010.80 1010.98 1011.08 1011.51 1011.52 1011.90 1012.12 1012.46 1012.82 1012.86 1013.14 1013.34 1013.62 1014.05 1014.17 1014.12 1014.30 1014.50 1015.11 1015.52 1015.63 1015.67 1015.70
1005.85 1005.44 1004.39 1002.48 1001.39 1001.33 1000.81 1000.21 999.62 1000.05 1000.65 1001.50 1002.01 1002.47 1002.92 1003.66 1004.18 1004.11 1004.65 1005.39 1006.30 1007.11 1007.87 1008.53 1009.08 1009.84 1010.38 1010.65 1011.03 1011.39 1011.32 1011.62 1012.02 1012.37 1012.49 1012.58 1012.87 1012.99 1013.33 1013.65 1013.79 1013.88 1014.08 1014.49 1014.83 1015.19 1015.37 1015.63 1015.67
1006.15 1005.69 1004.56 1003.44 1001.29 1001.33 1000.60 1000.00 999.26 999.73 1000.18 1000.42 1001.23 1001.85 1002.19 1002.58 1002.76 1003.12 1004.16 1004.96 1005.72 1006.53 1007.25 1007.90 1008.57 1009.27 1009.81 1010.34 1010.83 1011.28 1011.50 1011.75 1011.86 1012.05 1012.23 1012.27 1012.52 1012.82 1012.99 1013.20 1013.46 1013.69 1013.99 1014.26 1014.63 1014.93 1015.10 1015.22 1015.42
1005.37 1005.22 1004.54 1002.94 1001.61 1002.17 1001.26 1000.24 999.34 999.19 999.97 1000.25 1000.86 1001.39 1001.43 1001.37 1001.57 1002.66 1003.71 1004.55 1005.44 1006.24 1006.89 1007.55 1008.20 1008.85 1009.50 1010.26 1010.90 1011.32 1011.51 1011.65 1011.74 1011.59 1011.48 1011.75 1012.10 1012.27 1012.58 1012.95 1013.21 1013.34 1013.67 1013.86 1014.25 1014.71 1015.03 1015.24 1015.26
1004.51 1004.53 1003.83 1002.51 1001.63 1001.70 1000.84 1000.52 999.88 999.61 999.25 999.41 999.82 1000.29 1000.36 1000.68 1001.55 1002.34 1003.33 1004.18 1004.88 1005.60 1006.11 1006.91 1007.55 1008.29 1008.91 1009.45 1010.09 1010.64 1011.11 1011.27 1011.29 1011.20 1011.03 1011.02 1011.34 1011.68 1012.03 1012.54 1012.79 1013.19 1013.41 1013.77 1014.05 1014.31 1014.86 1015.08 1015.21
1003.56 1003.82 1003.37 1002.85 1001.43 1001.28 1001.18 1000.97 1000.24 999.15 998.91 998.53 998.63 998.56 999.00 999.58 1000.45 1001.86 1002.79 1003.53 1004.15 1004.99 1005.69 1006.31 1006.93 1007.66 1008.29 1008.98 1009.78 1010.43 1010.85 1011.07 1011.05 1010.82 1010.73 1010.71 1010.82 1011.23 1011.68 1012.07 1012.50 1012.83 1013.07 1013.49 1013.76 1014.13 1014.61 1014.99 1015.04
1003.08 1002.29 1002.71 1002.85 1002.65 1002.23 1001.92 1001.99 1001.18 999.86 999.24 998.48 997.63 997.97 998.48 998.85 999.81 1001.05 1001.97 1002.62 1003.29 1004.07 1005.19 1005.95 1006.62 1007.18 1007.96 1008.58 1009.34 1009.83 1010.32 1010.85 1010.57 1010.44 1010.24 1010.40 1010.54 1011.07 1011.45 1011.75 1012.15 1012.58 1012.79 1013.13 1013.51 1013.77 1014.26 1014.65 1015.02
1002.18 1001.70 1002.19 1002.47 1002.84 1003.23 1002.75 1002.89 1001.16 1000.35 999.72 998.65 997.57 997.12 997.44 997.96 998.97 1000.36 1000.86 1001.53 1002.87 1003.81 1004.80 1005.87 1006.47 1007.12 1007.85 1008.33 1008.70 1009.44 1010.05 1010.17 1010.14 1010.28 1010.33 1010.38 1010.69 1010.79 1011.08 1011.60 1011.96 1012.30 1012.55 1012.80 1013.14 1013.59 1013.95 1014.27 1014.55
1001.29 1001.88 1002.35 1003.05 1003.53 1003.99 1003.62 1003.28 1001.06 1000.48 999.41 998.70 997.46 996.97 997.05 997.91 998.84 999.35 1000.32 1001.90 1002.92 1004.04 1004.85 1005.79 1006.52 1007.17 1007.48 1008.02 1008.65 1009.14 1009.74 1010.07 1010.06 1010.14 1010.21 1010.41 1010.55 1010.83 1011.00 1011.26 1011.67 1012.03 1012.30 1012.62 1012.82 1013.15 1013.53 1013.82 1014.06
1001.15 1002.46 1003.41 1004.17 1004.68 1004.23 1003.61 1003.30 1000.73 999.11 998.95 998.11 997.43 997.19 997.17 997.22 997.66 999.61 1000.60 1001.78 1003.01 1003.96 1004.99 1005.88 1006.53 1007.25 1007.64 1007.90 1008.33 1008.65 1008.85 1009.19 1009.79 1009.74 1010.01 1010.33 1010.56 1010.71 1010.75 1011.06 1011.42 1011.72 1011.90 1012.14 1012.58 1012.72 1013.08 1013.41 1013.65
1000.91 1002.19 1003.72 1004.37 1005.02 1004.55 1003.63 1002.66 999.45 998.42 996.55 996.94 997.01 997.04 997.60 997.89 998.37 999.68 1000.60 1001.66 1002.86 1003.87 1004.97 1005.92 1006.82 1007.37 1007.77 1008.46 1008.74 1008.51 1008.98 1009.33 1010.13 1009.47 1009.91 1010.03 1010.22 1010.39 1010.54 1010.72 1011.03 1011.33 1011.56 1011.76 1012.01 1012.42 1012.58 1013.02 1013.30
999.89 1001.22 1001.85 1003.60 1004.79 1004.67 1003.65 1001.97 999.48 997.86 996.69 996.48 997.06 997.54 998.19 998.40 998.95 999.97 1000.91 1001.82 1002.93 1004.00 1004.98 1005.82 1006.91 1007.53 1007.98 1008.46 1008.65 1009.04 1009.14 1009.69 1010.04 1009.29 1009.86 1009.86 1010.01 1010.37 1010.57 1010.80 1011.19 1011.36 1011.44 1011.53 1011.59 1012.07 1012.32 1012.57 1012.78
999.37 999.87 1001.85 1003.41 1004.49 1004.80 1003.77 1002.41 1000.31 999.33 997.98 997.39 997.96 998.17 998.56 998.67 999.73 1000.69 1001.53 1002.39 1003.35 1004.29 1005.04 1006.22 1007.05 1007.68 1008.11 1008.06 1008.38 1008.73 1009.15 1009.48 1009.41 1009.71 1010.19 1010.02 1009.95 1010.33 1010.79 1011.03 1011.25 1011.37 1011.51 1011.65 1011.96 1012.18 1012.36 1012.48 1012.58
998.74 999.82 1000.99 1002.37 1003.53 1004.30 1004.10 1002.32 1000.42 999.50 998.87 998.36 998.73 998.70 999.00 999.26 1000.05 1000.92 1001.73 1002.74 1003.71 1004.70 1005.56 1006.37 1006.97 1007.56 1007.90 1008.14 1008.33 1008.56 1008.89 1009.18 1009.45 1009.83 1010.05 1010.11 1010.21 1010.55 1011.03 1011.32 1011.46 1011.50 1011.54 1011.73 1011.85 1012.06 1012.21 1012.36 1012.48
997.93 998.88 999.90 1001.84 1002.93 1003.41 1003.12 1001.97 1000.20 1000.17 999.82 999.24 1000.00 1000.30 1000.56 1001.10 1001.35 1001.74 1002.11 1002.88 1004.10 1005.06 1006.02 1006.70 1007.20 1007.58 1007.75 1008.08 1008.26 1008.16 1008.44 1008.74 1009.19 1009.50 1009.79 1009.98 1010.35 1010.61 1010.99 1011.35 1011.44 1011.52 1011.70 1011.91 1011.96 1012.11 1012.16 1012.30 1012.44
Thickness
5820 5813 5809 5803 5778 5776 5777 5796 5816 5807 5804 5817 5819 5801 5791 5787 5771 5744 5786 5786 5784 5776 5772 5770 5768 5766 5764 5761 5760 5760 5759 5759 5759 5760 5760 5760 5761 5762 5763 5763 5762 5763 5763 5764 5763 5762 5763 5762 5760
5824 5821 5812 5801 5776 5760 5775 5815 5807 5815 5819 5825 5818 5808 5795 5773 5791 5778 5778 5785 5785 5779 5775 5769 5767 5764 5762 5759 5759 5759 5760 5760 5761 5761 5761 5760 5761 5762 5763 5763 5762 5762 5763 5763 5763 5763 5763 5761 5760
5828 5828 5804 5791 5780 5771 5785 5816 5816 5822 5831 5828 5816 5820 5805 5784 5791 5789 5794 5788 5782 5778 5775 5771 5768 5765 5763 5761 5759 5759 5759 5759 5760 5761 5761 5760 5761 5762 5763 5763 5762 5762 5761 5761 5763 5762 5762 5761 5760
5831 5818 5809 5783 5780 5819 5817 5824 5831 5825 5828 5833 5825 5805 5812 5817 5801 5798 5793 5786 5780 5776 5773 5771 5768 5766 5764 5762 5761 5760 5759 5759 5759 5760 5761 5763 5763 5762 5762 5762 5762 5761 5761 5760 5761 5761 5760 5760 5760
5831 5816 5782 5784 5798 5829 5840 5846 5845 5831 5829 5825 5823 5799 5798 5813 5812 5800 5795 5789 5783 5776 5774 5773 5771 5767 5763 5761 5760 5759 5759 5758 5758 5758 5760 5762 5763 5762 5762 5761 5760 5760 5760 5760 5760 5760 5760 5760 5759
5811 5802 5770 5784 5808 5834 5844 5852 5847 5839 5834 5826 5814 5805 5802 5819 5810 5804 5800 5791 5787 5783 5777 5774 5770 5768 5765 5764 5762 5760 5759 5759 5759 5759 5758 5759 5759 5761 5761 5761 5759 5759 5759 5759 5760 5759 5759 5760 5759
5812 5794 5781 5799 5817 5827 5840 5857 5843 5837 5835 5829 5832 5800 5806 5811 5816 5814 5806 5801 5796 5792 5787 5783 5776 5772 5767 5764 5762 5761 5761 5761 5761 5760 5758 5757 5757 5757 5758 5758 5759 5758 5758 5759 5759 5759 5759 5760 5760
5823 5800 5795 5813 5811 5818 5847 5856 5861 5846 5841 5858 5843 5805 5794 5819 5822 5817 5811 5807 5802 5795 5789 5783 5777 5774 5771 5767 5764 5762 5761 5759 5760 5759 5759 5758 5756 5755 5755 5756 5758 5759 5758 5758 5759 5759 5759 5760 5760
5843 5793 5787 5804 5827 5836 5856 5853 5865 5869 5848 5856 5851 5839 5838 5838 5830 5815 5803 5796 5793 5790 5789 5784 5779 5774 5771 5768 5765 5762 5760 5758 5757 5757 5756 5754 5753 5753 5754 5754 5756 5759 5759 5758 5759 5759 5758 5759 5760
5819 5792 5816 5841 5858 5852 5858 5865 5859 5852 5848 5845 5845 5848 5845 5842 5832 5816 5804 5798 5796 5792 5790 5786 5781 5778 5774 5771 5766 5762 5759 5760 5757 5754 5753 5753 5752 5752 5752 5754 5755 5757 5760 5759 5758 5759 5759 5759 5760
5832 5812 5847 5862 5877 5877 5867 5866 5868 5853 5836 5850 5846 5842 5842 5839 5835 5824 5815 5810 5804 5801 5794 5790 5786 5782 5777 5773 5767 5762 5760 5758 5757 5754 5752 5752 5751 5751 5752 5752 5755 5755 5756 5759 5759 5758 5759 5760 5760
5827 5842 5850 5859 5875 5868 5862 5871 5859 5863 5864 5877 5870 5864 5849 5838 5835 5831 5825 5814 5808 5804 5802 5798 5792 5785 5779 5774 5768 5763 5760 5757 5753 5752 5750 5750 5751 5752 5752 5753 5753 5754 5754 5756 5759 5758 5758 5759 5760
5835 5842 5852 5864 5871 5877 5871 5864 5868 5866 5878 5879 5870 5859 5850 5843 5838 5837 5833 5827 5818 5809 5806 5803 5796 5787 5781 5775 5768 5762 5759 5758 5755 5753 5750 5750 5752 5752 5751 5753 5754 5753 5753 5755 5757 5759 5759 5758 5759
5846 5847 5851 5862 5867 5878 5864 5869 5865 5870 5877 5868 5863 5856 5851 5851 5848 5841 5836 5829 5825 5820 5811 5808 5802 5795 5787 5775 5767 5764 5763 5759 5756 5755 5753 5753 5753 5755 5753 5750 5753 5754 5753 5754 5756 5757 5758 5759 5760
5844 5829 5850 5863 5867 5866 5878 5856 5857 5882 5880 5863 5861 5861 5855 5851 5857 5852 5848 5839 5833 5826 5820 5812 5807 5801 5792 5782 5775 5768 5766 5760 5758 5757 5756 5754 5754 5755 5755 5755 5754 5755 5755 5755 5754 5756 5758 5759 5761
5820 5824 5805 5856 5858 5870 5860 5828 5870 5881 5870 5856 5863 5862 5858 5855 5860 5864 5859 5850 5841 5832 5822 5818 5812 5804 5795 5790 5781 5770 5765 5763 5765 5762 5758 5758 5756 5755 5754 5753 5754 5755 5755 5755 5754 5753 5755 5757 5759
5791 5779 5798 5826 5859 5850 5851 5835 5871 5878 5868 5859 5862 5865 5864 5859 5859 5865 5863 5856 5847 5837 5827 5819 5814 5805 5797 5791 5783 5777 5774 5770 5767 5763 5760 5758 5756 5757 5755 5755 5754 5754 5755 5754 5754 5753 5754 5753 5755
5772 5779 5795 5804 5846 5844 5841 5845 5873 5872 5868 5866 5862 5862 5864 5863 5866 5869 5863 5858 5851 5841 5832 5824 5817 5809 5802 5795 5787 5781 5776 5774 5769 5764 5761 5760 5758 5757 5757 5755 5754 5753 5754 5754 5753 5753 5754 5755 5754
5793 5788 5788 5816 5840 5823 5827 5839 5862 5871 5865 5862 5859 5858 5863 5868 5877 5870 5863 5858 5849 5841 5833 5828 5818 5812 5806 5796 5786 5780 5777 5773 5770 5769 5767 5763 5760 5759 5758 5756 5755 5754 5754 5755 5754 5752 5751 5751 5754
5796 5786 5791 5817 5834 5819 5828 5830 5850 5862 5867 5868 5863 5863 5866 5871 5869 5866 5859 5856 5850 5842 5835 5831 5824 5815 5809 5804 5796 5788 5781 5777 5773 5772 5771 5768 5764 5761 5759 5756 5754 5754 5753 5752 5752 5752 5748 5749 5751
5791 5781 5793 5796 5826 5828 5825 5810 5830 5857 5868 5877 5876 5880 5879 5876 5871 5862 5857 5856 5854 5845 5836 5832 5828 5819 5813 5806 5797 5789 5784 5778 5773 5771 5770 5769 5767 5763 5759 5756 5753 5752 5753 5750 5751 5748 5745 5742 5747
5764 5811 5808 5805 5797 5772 5816 5754 5803 5834 5843 5861 5873 5875 5876 5878 5875 5865 5861 5858 5856 5851 5842 5834 5826 5820 5812 5806 5797 5790 5782 5773 5773 5772 5773 5770 5766 5761 5757 5754 5751 5750 5751 5749 5747 5747 5744 5743 5739
5784 5815 5808 5809 5796 5783 5791 5763 5789 5824 5828 5845 5867 5875 5880 5881 5876 5865 5867 5868 5860 5850 5840 5829 5823 5816 5810 5803 5797 5787 5778 5776 5775 5769 5767 5765 5763 5758 5754 5750 5750 5749 5748 5746 5746 5744 5743 5741 5738
5814 5800 5795 5785 5771 5745 5775 5769 5797 5800 5825 5841 5864 5873 5879 5878 5875 5876 5874 5865 5856 5844 5836 5827 5818 5811 5808 5802 5792 5784 5774 5768 5765 5764 5762 5759 5757 5752 5751 5749 5748 5746 5746 5744 5743 5742 5742 5740 5740
5798 5765 5732 5735 5730 5726 5779 5766 5796 5827 5832 5847 5856 5865 5874 5882 5884 5868 5861 5857 5847 5839 5831 5822 5814 5804 5802 5800 5793 5784 5775 5768 5763 5762 5761 5756 5754 5752 5750 5748 5745 5744 5745 5744 5741 5740 5739 5738 5737
5780 5768 5727 5715 5718 5736 5773 5752 5802 5837 5862 5863 5862 5866 5866 5871 5875 5864 5861 5854 5845 5837 5827 5818 5809 5802 5797 5790 5781 5775 5761 5758 5752 5760 5760 5758 5757 5755 5751 5748 5745 5743 5743 5743 5741 5737 5738 5738 5736
5781 5763 5782 5747 5747 5729 5749 5780 5815 5839 5851 5856 5856 5856 5854 5858 5864 5857 5855 5850 5841 5831 5823 5816 5805 5799 5793 5784 5776 5764 5757 5741 5742 5760 5756 5757 5757 5754 5750 5746 5740 5739 5740 5740 5739 5736 5736 5737 5736
5788 5801 5762 5737 5731 5717 5737 5757 5768 5810 5830 5842 5842 5845 5851 5859 5854 5848 5845 5840 5833 5825 5820 5810 5803 5795 5790 5786 5778 5766 5755 5751 5748 5755 5749 5753 5754 5752 5746 5741 5739 5736 5735 5735 5734 5733 5734 5733 5733
5776 5760 5772 5758 5740 5720 5714 5748 5803 5809 5826 5829 5836 5843 5846 5849 5844 5840 5837 5832 5826 5818 5811 5805 5800 5792 5789 5785 5778 5772 5766 5762 5758 5751 5751 5752 5751 5747 5740 5736 5735 5733 5732 5731 5729 5728 5729 5729 5730
5795 5785 5777 5750 5738 5739 5739 5748 5811 5811 5819 5831 5825 5826 5831 5831 5833 5831 5831 5827 5817 5810 5803 5797 5792 5790 5790 5785 5780 5776 5772 5767 5762 5759 5755 5753 5748 5745 5738 5733 5732 5730 5728 5726 5726 5725 5727 5727 5727